Kuchera_Ratio
0.0 0.0 0.0 0.0 0.0 0.0 0.0 0.0 7.8 0.0 0.0 2.2 7.6 7.8 0.0 0.0 0.0 0.0 0.0 0.0 0.0 0.0 0.0 0.0 0.0 0.0 0.0 0.0 0.0 0.0 0.0 0.0 0.0 0.0 0.0 0.0 0.0 0.0 0.0 0.0 0.0 0.0 0.0 0.0
0.0 0.0 0.0 0.0 0.0 0.0 0.0 3.0 1.4 0.0 0.0 9.6 8.6 6.8 2.2 0.0 0.0 0.0 0.0 0.0 0.0 0.0 0.0 0.0 0.0 0.0 0.0 0.0 0.0 0.0 0.0 0.0 0.0 0.0 0.0 0.0 0.0 0.0 0.0 0.0 0.0 0.0 0.0 0.0
0.0 0.0 0.0 0.0 0.0 0.0 0.0 2.4 8.8 1.8 0.0 0.4 4.4 7.6 5.2 1.4 0.0 0.0 0.0 0.0 0.0 0.0 0.0 0.0 0.0 0.0 0.0 0.0 0.0 0.0 0.0 0.0 0.0 0.0 0.0 0.0 0.0 0.0 0.0 0.0 0.0 0.0 0.0 0.0
0.0 0.0 0.0 0.0 0.0 0.0 0.0 1.2 6.0 3.8 10.4 8.0 6.2 3.2 1.4 2.2 0.0 0.0 0.0 0.0 0.0 0.0 0.0 0.0 0.0 0.0 0.0 0.0 0.0 0.0 0.0 0.0 0.0 0.0 0.0 0.0 0.0 0.0 0.0 0.0 0.0 0.0 0.0 0.0
0.0 0.0 0.0 0.0 0.0 0.0 0.0 5.4 5.4 0.6 5.6 5.2 5.4 5.8 5.6 3.0 0.0 0.0 0.0 0.0 0.0 0.0 0.0 0.0 0.0 0.0 0.0 0.0 0.0 0.0 0.0 0.0 0.0 0.0 0.0 0.0 0.0 0.0 0.0 0.0 0.0 0.0 0.0 0.0
0.0 0.0 0.0 0.0 0.0 0.0 0.0 0.0 0.0 0.0 3.4 6.2 7.4 7.4 4.0 3.0 0.0 0.0 0.0 0.0 0.0 0.0 0.0 0.0 0.0 0.0 0.0 0.0 0.0 0.0 0.0 0.0 0.0 0.2 0.0 0.0 0.0 0.0 0.0 0.0 0.0 0.0 0.0 0.0
0.0 0.0 0.0 0.0 0.0 0.0 0.0 0.0 0.0 4.9 10.6 7.1 6.2 2.4 2.4 1.6 0.8 0.0 0.0 0.0 0.0 0.0 0.0 0.0 0.0 0.0 0.0 0.0 0.0 0.0 0.0 0.0 0.0 3.0 0.0 8.2 0.0 0.0 0.0 0.0 0.0 0.0 0.0 0.0
0.0 0.0 0.0 0.0 0.0 0.0 0.0 0.0 0.0 0.9 8.5 5.4 2.2 2.2 2.0 0.8 0.0 0.0 0.0 0.0 0.0 0.0 0.0 0.0 2.4 3.5 2.0 0.0 0.0 0.0 0.0 0.0 6.6 6.0 3.8 0.0 0.0 0.0 0.0 0.0 0.0 0.0 0.0 0.0
0.0 0.0 0.0 0.0 0.0 0.0 0.0 0.0 0.0 0.0 8.5 7.2 0.0 4.0 2.2 6.0 5.0 3.2 0.0 0.0 0.0 0.0 0.0 2.5 6.2 9.0 6.6 7.4 0.2 0.0 0.0 0.0 0.0 6.4 8.4 9.4 0.0 0.0 0.0 0.0 0.0 0.0 0.0 0.0
0.0 0.0 0.0 0.0 0.0 0.0 0.0 0.0 0.0 0.0 3.2 1.3 0.0 5.9 5.2 0.0 0.4 3.8 1.8 0.0 0.0 0.0 0.0 6.4 6.7 4.8 0.0 7.8 8.0 5.0 2.4 5.0 6.8 8.0 7.8 3.0 0.0 0.0 0.0 1.6 0.0 0.0 0.0 0.0
0.0 0.0 0.0 0.0 0.0 0.0 0.0 0.0 0.0 0.0 4.1 2.6 0.0 0.0 1.4 2.8 4.2 7.4 2.1 0.0 0.0 0.0 1.4 2.2 5.2 5.7 2.8 4.2 0.0 0.0 4.4 7.2 8.4 8.0 8.2 8.2 0.0 0.0 0.0 0.0 0.0 0.0 0.0 0.0
0.0 0.0 0.0 0.0 0.0 0.0 0.0 0.0 0.0 0.0 0.2 5.6 0.0 0.0 0.0 0.0 0.0 2.6 3.6 3.2 0.0 0.0 0.0 1.6 0.0 5.0 1.8 2.4 6.8 0.0 3.4 0.0 2.8 0.2 0.9 0.0 0.0 0.0 0.0 0.0 0.0 0.0 0.0 0.0
0.0 0.0 0.0 0.0 0.0 0.0 0.0 0.0 0.0 0.0 4.4 4.0 3.4 6.9 0.0 0.0 0.0 0.0 5.6 0.8 0.0 0.0 0.0 0.0 0.0 3.4 0.0 5.5 4.2 0.0 0.0 0.0 0.0 0.0 0.0 0.0 0.0 0.0 0.0 0.0 0.0 0.0 0.0 0.0
0.0 0.0 0.0 0.0 0.0 0.0 0.0 0.0 0.0 0.0 2.6 10.8 7.5 0.0 1.4 0.0 0.0 0.0 0.0 0.0 0.0 0.0 0.0 1.4 3.6 5.0 0.0 0.8 0.0 0.0 0.0 0.0 0.0 0.0 0.0 0.0 0.0 0.0 0.0 0.0 0.0 0.0 0.0 0.0
0.0 0.0 0.0 0.0 0.0 0.0 0.0 0.0 0.0 0.0 0.5 9.4 7.1 1.6 0.0 0.0 0.0 0.0 0.0 0.2 0.6 1.4 3.4 6.8 5.8 1.8 0.8 2.3 0.0 0.1 0.0 0.0 0.0 1.9 0.0 0.0 0.0 0.0 0.0 0.0 0.0 0.0 0.0 0.0
0.0 0.0 0.0 0.0 0.0 0.0 0.0 5.4 0.0 0.0 0.0 5.2 11.2 2.4 2.6 1.2 1.2 2.6 1.0 0.0 0.0 0.0 3.4 4.0 1.6 0.0 1.0 6.6 7.8 0.0 0.0 0.0 0.0 0.0 0.0 0.0 0.0 0.0 0.0 0.0 0.0 0.0 0.0 0.0
0.0 0.0 0.0 0.0 0.0 0.0 2.8 4.0 0.0 0.0 0.0 7.8 11.4 11.2 4.0 2.4 5.2 6.0 4.6 1.4 2.2 2.0 2.9 3.8 3.0 1.7 0.0 5.0 7.8 0.0 0.0 0.0 0.0 0.0 0.0 0.0 0.0 0.0 0.0 0.0 0.0 0.0 0.0 0.0
0.0 0.0 0.0 0.0 0.0 0.0 2.8 0.0 0.0 0.0 1.8 4.0 10.2 12.0 8.4 2.4 7.8 8.0 5.2 7.2 7.0 6.6 6.8 4.4 4.4 1.9 3.0 8.6 0.0 0.0 0.0 0.0 0.0 0.0 0.0 0.0 0.0 0.0 0.0 0.0 0.0 0.0 0.0 0.0
0.0 0.0 0.0 0.0 1.2 6.2 4.4 0.0 0.0 0.0 2.0 8.8 9.2 12.6 13.1 3.4 7.6 7.4 7.0 6.0 10.0 4.6 8.0 7.4 5.2 8.4 10.4 1.4 0.0 0.0 0.0 0.0 0.0 0.0 0.0 0.0 0.0 0.0 0.0 0.0 0.0 0.0 0.0 0.0
0.0 0.0 0.6 9.0 1.8 0.0 0.0 3.4 6.6 7.2 6.8 5.2 9.2 5.4 11.2 5.0 7.6 8.2 9.0 8.4 9.8 12.3 10.0 5.2 10.1 10.2 0.0 0.0 0.0 0.0 0.0 0.0 0.0 0.0 0.0 0.0 0.0 0.0 0.0 0.0 0.0 0.0 0.0 0.0
0.0 3.3 4.8 0.0 0.0 1.6 6.0 9.2 9.8 8.0 10.2 7.2 7.0 7.4 9.4 4.0 9.6 10.0 7.2 11.0 9.8 13.3 12.3 10.1 12.2 11.2 1.6 0.0 0.0 0.0 0.0 0.0 0.0 0.0 0.0 0.0 0.0 0.0 0.0 0.0 0.0 0.0 0.0 0.0
0.0 0.0 0.0 0.0 2.8 7.6 8.0 10.5 7.4 10.6 12.2 7.7 8.8 8.0 6.4 6.6 1.2 9.0 6.8 10.8 9.8 13.6 8.8 12.5 13.4 5.6 0.6 0.0 0.0 0.0 0.0 0.0 0.0 0.0 0.0 0.0 0.0 0.0 0.0 0.0 0.0 0.0 0.0 0.0
0.0 1.0 1.8 3.3 5.2 14.4 13.2 15.3 12.0 12.7 8.6 7.8 8.3 10.4 8.4 6.0 3.8 9.2 9.0 12.7 13.6 8.7 14.5 14.0 7.8 1.4 0.6 0.2 0.0 0.5 0.0 0.0 0.3 1.9 1.8 1.6 0.4 0.3 0.3 1.4 0.9 0.0 0.0 0.4
3.6 3.9 12.3 12.7 14.7 14.2 13.1 12.9 12.1 7.9 4.3 7.2 4.9 7.9 9.8 3.2 11.0 10.1 14.7 10.8 9.7 14.7 15.6 13.1 6.7 2.9 3.0 2.4 1.4 2.1 3.2 2.2 3.0 4.0 4.8 5.9 5.5 5.3 5.4 5.5 5.2 3.8 2.9 3.1
4.5 6.6 17.2 13.9 11.1 11.2 9.8 10.5 9.6 5.8 3.6 4.3 4.8 4.5 3.8 12.0 11.9 10.9 12.2 15.8 15.1 14.4 13.1 8.3 6.1 4.0 4.8 6.0 4.8 7.7 6.0 7.0 8.1 7.2 9.0 8.8 8.5 7.9 8.9 8.8 7.0 6.2 5.6 4.8
7.5 8.7 11.8 7.9 14.2 14.0 9.1 8.2 5.8 4.6 4.7 3.7 3.1 10.2 10.5 11.2 10.8 12.8 14.9 13.7 15.2 13.5 9.4 6.8 5.4 6.5 7.2 8.0 8.4 9.4 8.2 7.8 7.8 7.8 8.8 8.4 7.8 9.0 9.0 8.2 7.8 7.0 6.6 7.2
6.2 13.1 8.4 9.2 8.6 10.0 9.0 8.1 6.5 0.0 4.3 12.1 11.2 13.9 12.6 8.3 13.6 13.3 8.3 13.9 12.3 8.1 8.7 8.1 7.5 7.7 8.3 9.3 9.8 9.6 8.7 8.5 8.2 8.5 8.5 8.4 8.2 8.2 8.2 9.2 8.4 6.8 7.2 7.1